Regional Weather Roundup
Issued by NWS

Home | Current Version | Previous Version | Text Only | Print | Product List | Glossary On
Versions: 1 2 3 4 5 6 7 8 9 10 11 12 13 14 15 16 17 18 19 20 21 22 23 24 25 26 27 28 29 30 31 32 33 34 35 36 37 38 39 40 41 42 43 44 45 46 47 48 49 50
000
ASUS43 KDTX 040810
RWRMI
MICHIGAN HOURLY REGIONAL WEATHER ROUNDUP
NATIONAL WEATHER SERVICE DETROIT/PONTIAC MI
400 AM EDT FRI SEP 04 2015

NOTE: "FAIR" INDICATES FEW OR NO CLOUDS BELOW 12,000 FEET WITH NO
SIGNIFICANT WEATHER AND/OR OBSTRUCTION TO VISIBILITY.

MIZ047>049-052>055-059>063-066>070-074>076-081>083-040900-
SOUTHEAST LOWER MICHIGAN

CITY           SKY/WX    TMP DP  RH WIND       PRES   REMARKS
ADRIAN         CLOUDY    67  65  93 S6        29.97S
ALMA           CLOUDY    68  67  99 CALM      29.95R FOG
ANN ARBOR      CLOUDY    68  67  96 S5        29.96S
BAD AXE        CLOUDY    67  66  97 CALM      29.98R FOG
CARO           CLOUDY    66  66  99 E5        29.95S FOG
DETROIT CITY   CLOUDY    69  67  93 S8        29.96S
DETROIT        CLOUDY    70  67  90 SE7       29.97R
FLINT          MOCLDY    70  65  84 S6        29.95S
GROSSE ILE     RAIN      72  68  88 SE12      29.96R
HILLSDALE      CLOUDY    71  71 100 SE6       29.97R FOG
HOWELL         CLOUDY    67  67  97 SE8       29.96S

CITY           SKY/WX    TMP DP  RH WIND       PRES   REMARKS
JACKSON        CLOUDY    70  68  93 S7        29.95S FOG
LAMBERTVILLE   LGT RAIN  68  65  90 S3        29.97R
LANSING        CLOUDY    69  67  93 S7        29.94S FOG
LAPEER         MOCLDY    67  67  98 CALM      29.96R
MASON          CLOUDY    68  65  90 CALM      29.95S FOG
MONROE         CLOUDY    69  67  93 CALM      29.96R
MT. CLEMENS    CLOUDY    69  67  95 S8        29.95R
PONTIAC        CLOUDY    68  67  96 S9        29.96S
PORT HOPE        N/A     70  68  93 SE6       29.97R
PORT HURON     CLOUDY    66  66 100 SE3       29.97R FOG
TRI CITIES     CLOUDY    68  66  93 NE6       29.96R FOG
MIDLAND        DRIZZLE   67  66  96 NE5       29.95R
TROY           CLOUDY    69  68  97 S5        29.98S
SAGINAW HB     CLOUDY    66  64  94 NE5       29.95R FOG
$$
MIZ043>046-050>051-056>058-064>065-071>073-077>080-040900-
SOUTHWEST LOWER MICHIGAN

CITY           SKY/WX    TMP DP  RH WIND       PRES   REMARKS
BATTLE CREEK   CLOUDY    68  66  93 NW6       29.95S FOG
BENTON HARBOR  CLOUDY    69  66  90 CALM      29.95S
BIG RAPIDS     CLOUDY    67  66  97 CALM      29.96R FOG
COLDWATER      CLOUDY    70  70 100 CALM      29.96R FOG
FREMONT        CLOUDY    67  67 100 W3        29.95S FOG
HOLLAND        MOCLDY    68  66  93 W3        29.96R
GRAND RAPIDS   CLOUDY    68  67  96 W7        29.94S FOG
IONIA          CLOUDY    69  68  99 W5        29.94R
KALAMAZOO      CLOUDY    68  65  90 W6        29.95S
LUDINGTON      CLOUDY    71  69  93 CALM      29.96S FOG
MARSHALL       MOCLDY    69  67  93 CALM      29.94S
MOUNT PLEASANT CLOUDY    68  67  94 E5        29.95R FOG
MUSKEGON       CLOUDY    71  66  84 N5        29.95S
SOUTH HAVEN    CLOUDY    69  66  89 NW5       29.96R
$$
MIZ016>042-040900-
NORTHERN LOWER MICHIGAN

CITY           SKY/WX    TMP DP  RH WIND       PRES   REMARKS
ALPENA         CLOUDY    68  66  93 E3        29.99F FOG
BEAVER ISLAND  MOCLDY    67  63  87 E8        30.01S
BELLAIRE       MOCLDY    67  65  92 CALM      29.98S
CADILLAC       CLOUDY    66  65  97 NE5       29.98R
CHARLEVOIX     MOCLDY    67  66  97 CALM      30.02S
FRANKFORT      CLOUDY    68  66  93 E3        29.98R
GAYLORD        CLOUDY    66  66 100 NE7       30.01R
GRAYLING       MOCLDY    65  64  98 E3        30.00R FOG
HARBOR SPRINGS MOCLDY    67  62  82 NE10      30.00R
HOUGHTON LAKE  CLOUDY    66  64  93 E5        29.99R
MANISTEE       CLOUDY    68  64  88 NE3       29.97R
OSCODA         CLOUDY    67  67  98 CALM      29.98R
PELLSTON       MOCLDY    65  63  93 NE6       30.02R
ROGERS CITY    CLOUDY    67  62  84 CALM      30.02S
TRAVERSE CITY  CLOUDY    70  66  87 NE5       29.97S
$$
MIZ007>008-015-040900-
EASTERN UPPER MICHIGAN

CITY           SKY/WX    TMP DP  RH WIND       PRES   REMARKS
KINROSS        MOCLDY    64  61  88 E6        30.04S
MACKINAC ISLAN MOCLDY    65  60  82 E10       30.02S
NEWBERRY       CLEAR     61  59  93 CALM      30.03S
S. S. MARIE    PTCLDY    66  57  72 NE5       30.04S
MUNISING         N/A     58  55  90 S5        30.04R
$$
MIZ004>006-011>014-085-040900-
CENTRAL UPPER MICHIGAN

CITY           SKY/WX    TMP DP  RH WIND       PRES   REMARKS
MANISTIQUE     CLEAR     62  59  89 CALM      30.01F
ESCANABA       CLEAR     61  57  88 N5        30.00S
MENOMINEE      CLEAR     63  57  82 N7        30.00F
SAWYER-GWINN   CLEAR     56  54  92 CALM      30.06R
$$
MIZ001>003-009>011-084-040900-
WESTERN UPPER MICHIGAN

CITY           SKY/WX    TMP DP  RH WIND       PRES   REMARKS
IRON MOUNTAIN  CLEAR     59  57  93 NW3       30.04S
HOUGHTON       CLEAR     59  55  87 E8        30.05S
COPPER HARBOR    N/A     65  57  75 CALM      30.04S
IRONWOOD       CLEAR     63  61  94 E6        30.01S
$$

ABBREVIATIONS USED IN REMARKS
   TC - TEMPERATURE IN CELSIUS
  WCI - WIND CHILL INDEX
   HX - HEAT INDEX
  VSB - VISIBILITY



USA.gov is the U.S. government's official web portal to all federal, state and local government web resources and services.